{"data":{"norad_id":59078,"epoch":"2026-05-24T18:05:25.018656Z","epoch_age_seconds":92821,"freshness":"FRESH","line1":"1 59078U 24041E   26144.75376179  .00009944  00000+0  37023-3 0  9995","line2":"2 59078  42.9979 241.2086 0001313 270.8712  89.1989 15.27594906125908","mean_motion":15.27594906,"eccentricity":0.0001313,"inclination_deg":42.9979,"raan_deg":241.2086,"arg_perigee_deg":270.8712,"mean_anomaly_deg":89.1989,"bstar":0.00037023,"rev_number":12590,"period_min":94.265828875447,"perigee_km":482.10359460217,"apogee_km":483.90533035021,"semimajor_km":6861.1414624762,"source":"CELESTRAK","updated_at":"2026-05-25T13:38:18.828318Z"}}